Probability
0 0 0 0 0 0 0 0 0 0 0 0 0 0 0 0 0 1 2 3 5 7 9 13 17 21 24 26 29 31 30 32 32 27 23 21 18 14 11 9 9 7 5 5
0 0 0 0 0 0 0 0 0 0 0 0 0 0 0 0 0 0 1 3 5 7 10 13 17 20 22 26 29 29 28 28 29 26 22 18 15 12 10 8 8 6 5 5
0 0 0 0 0 0 0 0 0 0 0 0 0 0 0 0 1 1 2 4 6 8 9 11 15 18 20 24 27 26 26 26 25 24 21 15 11 10 9 8 6 5 5 5
0 0 0 0 0 0 0 0 0 0 0 0 0 0 1 1 2 4 4 5 6 7 8 11 14 16 18 21 23 23 25 25 24 23 21 15 11 9 9 8 7 6 5 4
0 0 0 0 0 0 0 0 0 0 0 0 0 0 1 1 1 3 5 5 5 6 8 11 14 15 16 18 18 19 22 23 23 23 21 17 13 11 10 10 10 8 6 4
0 0 0 0 0 0 1 0 0 0 0 0 0 0 1 2 1 2 4 5 4 6 9 12 13 13 14 15 16 18 22 23 23 23 21 18 15 12 10 10 11 10 7 5
0 0 0 0 0 0 0 0 0 0 0 0 0 0 2 3 3 3 5 5 5 6 9 12 12 11 12 14 16 19 22 22 21 21 21 18 15 12 10 9 11 10 8 6
0 0 0 0 0 0 0 0 0 0 0 0 0 1 2 3 4 5 6 5 3 4 8 12 13 12 13 14 15 17 19 19 19 20 19 16 14 12 9 9 11 11 9 8
0 0 0 0 0 0 0 0 0 0 0 0 0 1 2 3 4 5 5 3 2 2 6 11 14 13 13 15 14 13 13 15 17 18 16 14 13 11 9 9 11 12 11 9
0 0 0 0 0 0 0 0 0 0 0 0 0 0 1 3 4 3 3 2 2 3 5 9 12 11 11 14 14 11 10 12 15 15 14 13 12 11 10 10 12 13 12 11
1 1 0 0 0 0 0 0 0 0 0 0 0 0 2 4 5 4 4 4 5 5 6 8 10 9 9 11 13 12 11 12 12 11 10 10 11 12 11 10 11 13 13 12
2 2 1 0 0 0 0 0 0 0 0 0 0 1 3 6 6 5 6 7 7 6 6 7 9 9 8 10 12 12 11 11 10 8 8 9 11 12 12 11 11 12 12 12
3 3 1 0 0 0 0 0 0 0 0 0 0 2 5 7 7 7 7 8 8 7 6 7 8 9 9 10 11 11 10 10 9 7 7 9 11 12 12 11 11 11 10 9
3 3 2 1 1 1 0 0 0 0 0 0 1 3 7 9 10 9 9 8 8 8 7 8 10 11 12 11 11 10 10 10 9 8 9 10 10 11 11 11 10 8 6 5
3 3 3 3 3 3 2 1 0 0 0 1 4 6 8 10 11 11 10 8 9 9 8 8 11 13 14 14 13 12 12 13 12 10 10 11 10 10 10 10 9 7 4 2
4 3 3 3 3 3 3 2 1 0 2 4 6 7 7 8 9 10 9 8 9 9 9 8 9 12 14 15 15 14 13 14 13 11 10 9 9 9 8 9 8 6 4 3
5 4 3 2 3 3 4 3 2 3 5 6 6 6 5 6 7 8 8 7 7 8 10 9 9 12 15 15 14 14 13 13 12 10 8 7 7 7 7 7 7 6 6 5
6 5 4 2 2 3 4 5 4 5 7 7 7 6 5 5 6 7 6 6 6 8 11 12 12 14 16 15 14 13 12 11 10 9 8 7 6 6 6 6 6 7 7 7
4 6 4 2 1 2 3 3 4 5 5 6 7 7 7 7 7 6 6 6 7 8 11 13 14 15 16 15 13 12 11 10 10 9 8 7 6 6 5 5 5 6 7 7
2 4 4 1 0 1 1 1 2 2 2 3 4 5 6 7 7 6 4 5 6 8 11 14 15 15 16 14 12 11 10 10 10 10 9 8 7 6 4 4 4 5 5 5
1 1 1 0 0 1 2 2 2 3 3 3 3 3 3 4 4 3 3 4 5 9 13 16 17 17 16 14 11 10 10 10 10 10 11 10 8 6 4 4 4 4 3 2
1 1 1 1 1 2 4 4 4 6 5 4 3 2 1 1 1 2 3 5 7 10 14 17 18 17 15 12 9 9 9 9 10 11 12 11 8 5 3 3 3 2 1 0
1 2 3 4 3 4 5 5 5 5 5 3 2 1 1 1 1 2 5 8 9 10 12 15 16 15 13 9 8 8 9 9 11 11 11 10 6 4 3 2 1 0 0 0
1 2 3 4 4 4 4 4 4 3 3 3 3 2 3 3 3 5 7 10 10 10 11 12 12 12 10 8 7 7 7 9 10 9 8 7 4 3 2 1 0 0 0 0
2 1 1 3 3 3 3 4 3 3 4 4 4 3 3 3 4 6 9 10 11 11 11 10 9 9 8 8 6 4 4 5 6 6 5 4 3 1 1 1 1 0 0 0
3 2 1 1 3 3 3 3 3 3 4 5 4 3 2 2 4 7 10 11 11 11 12 10 8 7 7 7 5 2 1 2 3 4 3 3 2 1 1 2 3 1 0 0
Wind_Speed
11 13 13 12 12 9 7 8 7 5 3 6 7 7 5 5 6 5 4 4 4 4 3 3 3 4 4 4 4 4 5 5 4 4 3 3 2 2 2 2 2 3 3 3
11 15 13 9 9 10 10 10 9 5 4 6 7 8 6 6 6 5 4 4 4 4 4 3 4 4 4 5 4 4 5 5 5 4 3 2 2 2 2 1 2 2 3 3
16 8 9 11 11 12 12 11 8 6 5 7 8 10 9 7 6 5 5 4 5 5 4 4 4 5 5 5 5 4 4 5 5 5 3 3 2 2 2 2 2 2 2 3
14 9 10 13 13 13 12 9 9 8 9 7 7 8 7 8 8 7 6 5 5 4 4 4 4 5 5 5 5 5 5 5 5 5 4 4 3 3 3 2 2 2 2 2
11 11 12 14 13 12 9 6 8 9 10 9 9 10 5 7 9 8 6 5 5 5 4 4 4 4 4 5 5 5 5 5 5 5 5 4 3 3 3 3 2 2 2 2
10 8 10 11 10 10 7 7 7 9 10 12 10 10 6 6 6 6 6 5 5 5 4 4 3 3 4 4 5 5 5 5 5 5 5 4 3 3 3 3 3 3 2 2
12 12 10 10 11 11 12 10 8 9 10 8 5 8 4 2 2 4 5 5 5 4 4 4 4 4 4 5 5 5 5 5 5 5 5 4 4 4 4 3 3 3 2 3
12 12 12 11 12 10 14 14 9 7 7 5 6 8 2 3 3 3 4 5 4 4 4 4 4 4 4 5 5 4 5 5 5 5 5 4 4 3 3 3 3 3 2 2
10 9 11 11 11 12 14 14 11 10 9 8 6 5 4 5 5 5 5 6 5 5 5 4 4 4 4 4 4 4 5 5 5 5 5 5 4 3 2 3 3 3 2 3
8 8 10 10 10 12 12 10 9 10 8 9 8 8 5 8 7 6 6 6 6 5 5 4 4 4 4 4 4 4 4 4 5 5 4 4 4 3 3 3 3 2 3 3
9 9 9 12 13 13 12 13 11 10 9 9 7 3 2 4 6 6 6 6 6 6 6 5 5 5 5 5 5 5 5 5 5 5 5 4 4 4 3 3 3 3 3 3
8 7 9 11 8 8 12 13 13 10 9 10 9 2 5 3 4 5 5 5 5 5 6 6 5 5 5 5 5 5 5 5 5 5 5 5 4 4 3 3 3 3 3 3
6 7 9 10 10 10 12 13 13 12 9 9 10 4 6 5 5 4 5 5 6 6 5 5 5 5 5 5 5 5 5 5 5 5 5 5 4 4 4 3 3 3 3 3
5 8 10 10 7 8 11 12 13 14 12 11 12 7 5 5 6 6 5 6 6 6 6 5 5 5 5 5 5 5 5 5 5 5 5 5 4 4 3 3 3 3 3 3
6 9 10 9 7 9 10 11 13 15 14 12 9 8 5 4 5 6 6 6 6 7 6 5 5 5 5 5 5 5 5 4 4 5 5 5 4 3 3 3 3 3 3 3
6 7 8 9 7 8 10 11 12 12 12 11 8 7 3 3 5 6 7 7 7 7 7 6 6 5 5 5 5 5 5 5 4 4 4 5 4 4 3 3 3 3 3 3
7 7 8 9 7 8 11 10 11 11 10 9 9 5 5 5 6 7 7 8 7 6 6 6 5 5 4 4 4 4 5 5 5 4 4 4 4 4 3 3 3 3 3 3
7 7 6 7 7 11 3 2 5 7 5 5 3 2 4 4 4 4 6 6 6 6 6 5 5 5 4 5 5 4 4 5 5 4 4 4 4 4 3 3 3 2 2 2
8 7 6 7 9 7 4 3 4 6 5 2 2 3 4 5 5 5 5 5 5 5 5 5 5 5 5 5 5 4 4 5 5 5 4 4 3 3 3 3 3 2 2 2
6 8 8 8 9 8 1 1 2 6 5 4 4 4 5 6 5 4 5 5 6 5 5 5 5 5 5 5 5 5 4 4 4 4 4 4 3 3 3 3 2 2 2 2
7 8 9 9 8 2 4 1 4 7 1 4 4 4 4 2 1 4 5 5 5 5 5 6 5 5 4 5 5 4 4 4 3 4 4 4 3 3 3 3 2 2 2 2
5 6 7 7 7 2 4 1 1 3 4 3 3 3 2 2 4 5 5 6 6 6 6 6 5 5 4 4 4 4 4 3 3 3 4 4 3 3 3 3 3 2 2 3
2 3 2 1 1 5 3 3 3 2 2 2 2 2 2 3 3 4 5 5 5 6 6 5 5 5 5 4 4 3 3 3 3 3 3 3 3 3 3 3 4 3 3 2
1 2 1 2 2 2 2 3 2 1 1 0 1 2 3 3 3 3 4 4 5 5 6 6 6 5 4 4 3 3 3 3 4 4 3 3 3 3 3 2 3 3 2 1
2 1 1 2 1 1 1 2 2 2 1 0 1 1 2 2 3 3 4 4 5 5 5 5 5 5 5 4 4 3 3 3 3 3 3 3 3 3 3 2 0 1 0 1
2 2 3 1 1 2 1 2 2 1 1 0 0 1 2 2 3 3 4 4 4 5 5 5 4 4 4 4 4 3 3 3 3 3 3 3 3 2 2 2 2 3 1 2
Wind_Direction
193 212 214 211 220 250 247 242 234 221 181 229 236 248 239 210 219 217 213 203 188 179 156 151 161 160 160 163 165 172 173 163 169 163 174 175 186 190 175 175 172 191 202 201
199 219 219 218 220 233 235 236 230 207 191 240 243 249 240 225 221 217 213 201 192 187 170 158 163 163 164 165 167 171 175 166 171 168 174 172 181 189 172 166 158 192 198 202
216 211 204 212 214 222 229 237 237 230 211 229 239 239 221 204 211 205 212 208 194 193 184 175 171 166 164 166 173 176 171 167 169 160 155 142 155 178 161 169 169 185 191 192
224 213 202 213 218 223 231 230 237 232 236 232 230 260 210 200 203 204 204 199 194 193 190 180 172 170 171 172 170 168 167 166 165 163 165 169 177 176 170 183 170 161 178 184
214 207 211 219 219 221 233 222 227 233 243 253 231 253 223 191 211 204 197 193 193 194 189 182 177 172 173 168 162 163 163 166 165 168 169 179 179 172 165 168 155 170 170 182
224 208 221 225 219 215 204 199 214 230 238 242 235 248 242 198 213 198 187 186 188 187 181 175 169 171 171 162 161 161 158 160 161 167 167 171 169 162 153 159 161 176 168 173
211 208 207 214 203 194 204 209 214 216 220 233 201 238 246 144 194 202 187 180 179 178 176 172 172 174 171 160 159 159 155 157 159 161 160 160 167 171 168 178 182 185 171 172
209 206 196 202 213 204 209 221 233 242 241 225 193 236 188 130 160 181 180 168 167 175 175 173 174 171 164 158 157 151 153 155 158 158 154 154 167 177 173 184 195 188 182 169
214 207 183 199 214 225 215 224 243 261 261 256 225 213 180 168 179 178 176 172 171 173 170 173 171 167 160 153 150 147 148 147 152 152 149 150 157 162 146 152 183 174 155 152
228 220 195 191 207 217 233 225 227 241 246 249 235 231 216 178 185 181 184 182 173 164 163 167 165 161 154 147 143 140 141 143 147 145 151 142 144 148 143 140 133 131 145 148
226 226 200 197 211 207 204 213 225 237 247 255 254 229 106 173 181 181 176 172 169 171 165 162 163 155 152 150 146 145 139 139 139 140 137 131 137 143 145 140 134 131 134 142
211 232 220 213 214 230 221 221 221 230 236 248 263 238 95 137 158 167 163 154 154 159 158 155 154 148 148 149 148 145 142 139 138 137 136 134 136 139 141 129 122 126 130 132
194 217 216 203 196 206 219 222 226 235 245 246 252 220 123 143 149 161 158 148 143 146 148 151 152 151 152 150 150 148 150 143 140 137 137 135 135 133 129 123 127 129 128 126
220 227 235 233 227 205 213 218 223 230 238 243 247 245 188 176 172 173 167 157 152 145 147 157 162 158 154 151 150 149 145 144 143 139 137 135 135 134 135 134 134 136 131 130
223 232 239 254 256 226 223 225 224 231 243 254 256 254 229 196 189 178 169 164 159 151 154 164 165 150 147 149 149 144 140 141 143 144 139 136 138 136 137 135 133 137 141 138
219 239 234 237 236 229 229 231 232 235 240 247 250 251 222 185 182 180 181 177 172 165 165 166 164 157 154 151 150 146 145 142 146 149 144 138 142 140 135 132 130 132 133 130
208 222 231 232 224 229 229 228 231 233 238 244 249 234 180 184 189 187 184 183 175 165 160 160 159 156 154 151 150 149 146 149 150 147 144 142 147 142 145 148 136 130 137 138
223 226 233 234 216 232 219 171 231 233 236 249 232 181 178 174 170 176 180 179 170 164 161 158 154 149 142 140 145 148 151 155 152 147 146 147 147 147 150 151 141 133 131 135
223 226 235 232 228 228 182 173 213 227 220 205 187 153 145 139 151 159 167 177 167 154 150 148 149 146 145 146 144 146 149 154 151 148 147 145 148 150 155 151 142 141 142 150
196 225 235 231 236 234 148 111 252 241 215 151 170 164 161 178 198 154 143 156 149 136 136 140 143 144 147 147 149 154 152 154 153 149 147 142 143 147 151 142 145 146 167 177
196 208 227 234 235 219 40 34 219 228 183 123 155 156 174 201 48 109 139 144 140 138 141 144 144 139 139 145 150 152 148 147 146 145 142 141 141 148 147 145 149 166 186 175
233 227 222 234 229 177 42 164 205 33 58 114 130 140 148 125 117 129 137 140 142 144 148 146 142 136 137 143 152 150 144 141 140 142 145 143 146 159 147 155 168 182 197 191
272 319 294 305 37 56 48 41 36 41 85 111 138 141 155 154 153 152 145 146 146 143 145 144 142 140 138 145 155 155 143 147 148 148 152 153 155 156 161 174 178 189 202 222
150 329 232 160 103 73 54 41 28 34 59 142 196 193 194 185 171 164 152 150 152 147 146 148 147 147 149 156 157 149 152 156 156 157 161 164 168 168 166 196 198 205 209 230
337 287 236 189 177 170 86 30 17 25 29 57 169 198 188 171 162 160 155 154 156 149 149 154 154 158 158 152 143 142 149 158 161 163 176 187 186 168 170 183 216 244 158 354
314 286 270 269 286 288 294 331 340 11 52 82 163 144 140 150 149 149 145 145 156 151 148 152 158 155 149 143 136 133 145 154 164 174 186 198 197 179 196 181 156 84 68 88